Location: Dodgeville
(42.9600°N, 90.1300°W)
Time: 21:47:40
(UTC-06:00)

Uosat F - Visible Passes

Search period start: 22 December 2014 00:00
Search period end: 01 January 2015 00:00
Orbit: 751 x 763 km, 98.7° (Epoch: 22 December)

Date Brightness Start Highest point End Pass type
(mag) Time Alt. Az. Time Alt. Az. Time Alt. Az.
22 Dec 12.0 04:58:31 10° N 05:01:20 34° N 05:01:20 34° N visible
23 Dec 12.9 04:19:26 10° NNE 04:21:33 24° NE 04:21:33 24° NE visible
23 Dec 12.4 05:58:57 10° NNW 06:01:34 20° NW 06:01:34 20° NW visible
23 Dec 14.1 17:15:23 10° WSW 17:17:44 13° W 17:20:07 10° WNW visible
24 Dec 13.8 03:41:04 10° NE 03:41:46 13° NE 03:41:46 13° NE visible
24 Dec 12.0 05:19:01 10° N 05:21:47 30° NNW 05:21:47 30° NNW visible
25 Dec 12.5 04:39:40 10° NNE 04:42:01 28° NNE 04:42:01 28° NNE visible
25 Dec 12.7 06:20:05 10° NNW 06:22:02 15° NW 06:22:02 15° NW visible
26 Dec 13.4 04:00:52 10° NE 04:02:16 17° NE 04:02:16 17° NE visible
26 Dec 12.2 05:39:39 10° N 05:42:17 25° NNW 05:42:17 25° NNW visible
26 Dec 13.8 16:55:00 10° SW 16:58:40 20° W 17:02:22 10° NW visible
27 Dec 12.2 05:00:02 10° N 05:02:32 30° N 05:02:32 30° N visible
28 Dec 13.0 04:20:55 10° NNE 04:22:48 22° NE 04:22:48 22° NE visible
28 Dec 12.4 06:00:29 10° NNW 06:02:49 19° NW 06:02:49 19° NW visible
28 Dec 14.1 17:17:00 10° WSW 17:19:15 13° W 17:21:32 10° WNW visible
29 Dec 13.8 03:42:32 10° NE 03:43:04 12° NE 03:43:04 12° NE visible
29 Dec 12.2 05:20:31 10° N 05:23:05 28° NNW 05:23:05 28° NNW visible
30 Dec 12.6 04:41:09 10° NNE 04:43:22 27° NNE 04:43:22 27° NNE visible
30 Dec 12.7 06:21:37 10° NNW 06:23:24 14° NW 06:23:24 14° NW visible
31 Dec 13.4 04:02:20 10° NNE 04:03:40 17° NE 04:03:40 17° NE visible
31 Dec 12.3 05:41:09 10° N 05:43:41 24° NNW 05:43:41 24° NNW visible
